Weather History for K5M9 - January, 2014

Change the Weather History Date:

Wednesday, January 29, 2014

  Actual Average (KPAH) Record (KPAH)
Temperature  
Mean Temperature 16 °F 35 °F  
Max Temperature 27 °F 45 °F 71 °F (1947)
Min Temperature 4 °F 26 °F -4 °F (1985)
Degree Days  
Heating Degree Days 50 30  
Month to date heating degree days 887  
Since 1 July heating degree days 2518  
Cooling Degree Days 0 0  
Month to date cooling degree days 0  
Year to date cooling degree days 0  
Moisture  
Dew Point 1 °F    
Average Humidity 46    
Maximum Humidity 72    
Minimum Humidity 30    
Precipitation  
Precipitation 0.00 in 0.12 in 2.83 in (1969)
Month to date precipitation 3.42  
Year to date precipitation 3.42  
Snow  
Snow 0.00 in 0.20 in 3.20 in (2010)
Month to date snowfall 2.8  
Since 1 July snowfall 5.1  
Snow Depth -    
Sea Level Pressure  
Sea Level Pressure 30.34 in    
Wind  
Wind Speed 6 mph (SSW)    
Max Wind Speed 14 mph    
Max Gust Speed 18 mph    
Visibility 10 miles    
Events      
T = Trace of Precipitation, MM = Missing Value Source: NWS Daily Summary

Daily Weather History Graph

Daily Weather History Graph

Search for Another Location

Airport or City:

Trip Planner

Search our weather history database for the weather conditions in past years. The results will help you decide how hot, cold, wet, or windy it might be!

Date:

Astronomy

Jan. 29, 2014 Rise Set
Actual Time 6:57 AM CST 5:13 PM CST
Civil Twilight 6:30 AM CST 5:41 PM CST
Nautical Twilight 5:58 AM CST 6:12 PM CST
Astronomical Twilight 5:28 AM CST 6:43 PM CST
Moon 5:34 AM CST (1/29) 4:12 PM CST (1/29)
Length of Visible Light 11h 11m
Length of Day
10h 15m
Waning Crescent, 2% of the Moon is Illuminated
Jan 29
Waning Crescent
Jan 30
New
Feb 6
First Quarter
Feb 14
Full
Feb 22
Last Quarter

Hourly Weather History & Observations

Time (CST) Temp. Windchill Dew Point Humidity Pressure Visibility Wind Dir Wind Speed Gust Speed Precip Events Conditions
12:15 AM 4.5 °F -2.7 °F -3.6 °F 69% 30.40 in 10.0 mi West 3.5 mph - N/A   Clear
7:35 AM 5.7 °F -1.3 °F -1.7 °F 72% 30.40 in 10.0 mi SSW 3.5 mph - N/A   Clear
7:55 AM 7.7 °F - -0.0 °F 71% 30.40 in 10.0 mi Calm Calm - N/A   Clear
8:15 AM 9.9 °F - 0.3 °F 65% 30.40 in 10.0 mi Calm Calm - N/A   Clear
8:35 AM 12.4 °F - 2.1 °F 64% 30.41 in 10.0 mi Calm Calm - N/A   Clear
8:55 AM 14.4 °F 6.9 °F 1.2 °F 56% 30.41 in 10.0 mi SW 4.6 mph - N/A   Clear
9:15 AM 15.8 °F 3.4 °F -3.3 °F 43% 30.41 in 10.0 mi SW 10.4 mph - N/A   Clear
9:35 AM 16.7 °F 3.8 °F -2.9 °F 42% 30.41 in 10.0 mi SW 11.5 mph - N/A   Clear
9:55 AM 18.3 °F 7.3 °F -1.7 °F 42% 30.42 in 10.0 mi SW 9.2 mph - N/A   Clear
10:15 AM 19.2 °F 7.0 °F -2.7 °F 38% 30.42 in 10.0 mi SW 11.5 mph 16.1 mph N/A   Clear
10:35 AM 21.0 °F 11.4 °F 0.1 °F 40% 30.41 in 10.0 mi SW 8.1 mph - N/A   Clear
10:55 AM 21.4 °F 10.4 °F -0.2 °F 39% 30.41 in 10.0 mi WSW 10.4 mph 16.1 mph N/A   Clear
11:15 AM 23.0 °F 13.1 °F -0.0 °F 37% 30.41 in 10.0 mi WSW 9.2 mph - N/A   Clear
11:35 AM 23.7 °F 14.7 °F -0.6 °F 35% 30.40 in 10.0 mi WSW 8.1 mph - N/A   Clear
11:55 AM 24.1 °F 14.4 °F -0.8 °F 34% 30.39 in 10.0 mi WSW 9.2 mph - N/A   Clear
12:15 PM 25.2 °F 14.4 °F -0.9 °F 32% 30.38 in 10.0 mi WSW 11.5 mph 18.4 mph N/A   Clear
12:35 PM 25.5 °F 15.5 °F -0.6 °F 32% 30.37 in 10.0 mi SW 10.4 mph 16.1 mph N/A   Clear
12:55 PM 26.4 °F 15.0 °F 0.7 °F 33% 30.36 in 10.0 mi SW 13.8 mph 18.4 mph N/A   Clear
1:15 PM 26.8 °F 16.5 °F -0.4 °F 31% 30.35 in 10.0 mi WSW 11.5 mph 16.1 mph N/A   Clear
1:35 PM 26.6 °F 16.8 °F -1.1 °F 30% 30.35 in 10.0 mi WSW 10.4 mph - N/A   Clear
1:55 PM 27.5 °F 18.6 °F -0.4 °F 30% 30.34 in 10.0 mi WSW 9.2 mph - N/A   Clear
2:15 PM 27.1 °F 18.9 °F -0.6 °F 30% 30.34 in 10.0 mi West 8.1 mph - N/A   Clear
2:35 PM 27.5 °F 23.6 °F 0.9 °F 32% 30.34 in 10.0 mi SW 3.5 mph - N/A   Clear
2:55 PM 27.3 °F 19.1 °F 0.5 °F 32% 30.33 in 10.0 mi SSW 8.1 mph - N/A   Clear
3:15 PM 27.3 °F 19.1 °F 1.0 °F 32% 30.33 in 10.0 mi SW 8.1 mph - N/A   Clear
3:35 PM 27.1 °F 19.7 °F 1.4 °F 33% 30.33 in 10.0 mi SSW 6.9 mph - N/A   Clear
3:55 PM 26.4 °F 17.3 °F 1.8 °F 35% 30.33 in 10.0 mi SW 9.2 mph - N/A   Clear
4:15 PM 26.4 °F 18.9 °F 2.1 °F 35% 30.32 in 10.0 mi SW 6.9 mph - N/A   Clear
4:35 PM 25.7 °F 18.0 °F 1.6 °F 35% 30.32 in 10.0 mi SSW 6.9 mph - N/A   Clear
4:55 PM 25.2 °F 18.3 °F 1.9 °F 37% 30.31 in 10.0 mi SW 5.8 mph - N/A   Clear
5:15 PM 24.1 °F 18.2 °F 2.3 °F 39% 30.31 in 10.0 mi SSW 4.6 mph - N/A   Clear
5:35 PM 22.8 °F 18.2 °F 2.3 °F 41% 30.31 in 10.0 mi SSW 3.5 mph - N/A   Clear
5:55 PM 21.7 °F 17.0 °F 2.5 °F 43% 30.31 in 10.0 mi SSW 3.5 mph - N/A   Clear
6:15 PM 21.0 °F 16.2 °F 2.5 °F 45% 30.31 in 10.0 mi South 3.5 mph - N/A   Clear
6:35 PM 20.7 °F 15.8 °F 2.1 °F 45% 30.30 in 10.0 mi South 3.5 mph - N/A   Clear
6:55 PM 19.9 °F - 1.9 °F 46% 30.30 in 10.0 mi Calm Calm - N/A   Clear
7:15 PM 18.9 °F 13.7 °F 3.2 °F 51% 30.29 in 10.0 mi South 3.5 mph - N/A   Clear
7:35 PM 19.2 °F 14.1 °F 3.0 °F 49% 30.30 in 10.0 mi South 3.5 mph - N/A   Clear
7:55 PM 19.4 °F 14.3 °F 2.7 °F 48% 30.29 in 10.0 mi SSW 3.5 mph - N/A   Clear
8:15 PM 18.5 °F 13.3 °F 2.8 °F 51% 30.29 in 10.0 mi South 3.5 mph - N/A   Clear
8:35 PM 18.5 °F 13.3 °F 4.1 °F 54% 30.28 in 10.0 mi South 3.5 mph - N/A   Clear
8:55 PM 17.6 °F 12.3 °F 4.3 °F 56% 30.28 in 10.0 mi South 3.5 mph - N/A   Clear
9:15 PM 18.7 °F 13.5 °F 4.1 °F 53% 30.28 in 10.0 mi SSW 3.5 mph - N/A   Clear
9:35 PM 18.5 °F 13.3 °F 4.1 °F 54% 30.28 in 10.0 mi South 3.5 mph - N/A   Clear
9:55 PM 16.9 °F 8.5 °F 4.1 °F 57% 30.28 in 10.0 mi South 5.8 mph - N/A   Clear
10:15 PM 17.1 °F 10.0 °F 5.0 °F 59% 30.27 in 10.0 mi South 4.6 mph - N/A   Clear
10:35 PM 17.4 °F 10.4 °F 5.2 °F 59% 30.27 in 10.0 mi South 4.6 mph - N/A   Clear
10:55 PM 17.6 °F 12.3 °F 5.9 °F 60% 30.26 in 10.0 mi South 3.5 mph - N/A   Clear
11:15 PM 17.4 °F 10.4 °F 5.7 °F 60% 30.25 in 10.0 mi South 4.6 mph - N/A   Clear
11:35 PM 18.0 °F 9.8 °F 5.7 °F 59% 30.25 in 10.0 mi South 5.8 mph - N/A   Clear
11:55 PM 17.4 °F 10.4 °F 5.7 °F 60% 30.25 in 10.0 mi South 4.6 mph - N/A   Clear